Back to catalog

FENGYUN 1C DEB

AliveSSO
NORAD 31247·DEBRIS·🇨🇳 China

Launched May 10, 1999 from Taiyuan Satellite Launch Center

Loading…

Next Passes (next 24 hours)

TLE

FreshSource: Space-Track

Epoch: Sep 14, 2026, 10:44 UTC

1 31247U 99025BMD 26257.44761624  .00000503  00000-0  33210-3 0  9998
2 31247  99.3414 159.3429 0060456  25.8462  30.5749 14.05672051993943

Track FENGYUN 1C DEB in real time with AllMySat

Download on the App Store